Location: Emblem
(62.4273°N, 6.4710°E)
Time: 15:12:28
(UTC+02:00)

Altair - Pass Details

Date: 09 February 2023
Orbit: 1501 x 1682 km, 47.2° (Epoch: 31 March)

Event Time Altitude Azimuth Distance (km) Brightness Sun altitude
Rises 23:24:33 0° 269° (W) 4,825 10.4 -39.9°
Reaches altitude 10° 23:28:21 10° 257° (WSW) 3,865 9.7 -40.0°
Enters shadow 23:31:11 18° 243° (WSW) 3,295 9.1 -40.2°
